| time (UTC) | temp F | wind direction | speed MPH | gust MPH | rain 1hr in | rain 24hr in | rain mn in | humidity % | barometer mb |
| 20260902013459 | 76 | 296 | 0.0 | 0.0 | 0.00 | 0.00 | 0.00 | 82 | 1013.0 |
| 20260902012514 | 77 | 305 | 0.0 | 0.0 | 0.00 | 0.00 | 0.00 | 80 | 1013.1 |
| 20260902011535 | 77 | 305 | 0.0 | 0.0 | 0.00 | 0.00 | 0.00 | 81 | 1013.0 |
| 20260902010553 | 76 | 305 | 0.0 | 0.0 | 0.00 | 0.00 | 0.00 | 81 | 1012.8 |
| 20260902005542 | 77 | 305 | 0.0 | 0.0 | 0.00 | 0.00 | 0.00 | 81 | 1012.7 |
| 20260902004545 | 78 | 305 | 0.0 | 0.0 | 0.00 | 0.00 | 0.00 | 79 | 1012.5 |
| 20260902003515 | 79 | 305 | 0.0 | 0.0 | 0.00 | 0.00 | 0.00 | 75 | 1012.5 |
| 20260902002517 | 79 | 305 | 0.0 | 0.0 | 0.00 | 0.00 | 0.00 | 73 | 1012.4 |
| 20260902001519 | 80 | 305 | 0.0 | 4.0 | 0.00 | 0.00 | 0.00 | 72 | 1012.5 |
| 20260902000522 | 80 | 275 | 2.0 | 5.0 | 0.00 | 0.00 | 0.00 | 72 | 1012.6 |
| 20260901233316 | 82 | 284 | 2.0 | 10.0 | 0.00 | 0.00 | 0.00 | 73 | 1012.5 |
| 20260901232300 | 83 | 284 | 4.0 | 10.0 | 0.00 | 0.00 | 0.00 | 72 | 1013.0 |
| 20260901231240 | 83 | 299 | 3.0 | 8.0 | 0.00 | 0.00 | 0.00 | 74 | 1013.0 |
| 20260901230211 | 83 | 182 | 2.0 | 7.0 | 0.00 | 0.00 | 0.00 | 75 | 1013.0 |
| 20260901225235 | 83 | 254 | 2.0 | 10.0 | 0.00 | 0.00 | 0.00 | 75 | 1013.1 |
| 20260901224238 | 83 | 263 | 4.0 | 10.0 | 0.00 | 0.00 | 0.00 | 74 | 1013.2 |
| 20260901223230 | 84 | 283 | 3.0 | 8.0 | 0.00 | 0.00 | 0.00 | 74 | 1013.3 |
| 20260901222250 | 84 | 282 | 3.0 | 9.0 | 0.00 | 0.00 | 0.00 | 72 | 1013.3 |
| 20260901221242 | 84 | 271 | 5.0 | 15.0 | 0.00 | 0.00 | 0.00 | 71 | 1013.2 |
| 20260901220211 | 85 | 280 | 7.0 | 15.0 | 0.00 | 0.00 | 0.00 | 70 | 1013.4 |
| 20260901215234 | 86 | 261 | 8.0 | 13.0 | 0.00 | 0.00 | 0.00 | 69 | 1013.3 |
| 20260901214255 | 87 | 282 | 7.0 | 13.0 | 0.00 | 0.00 | 0.00 | 69 | 1013.3 |
| 20260901212102 | 87 | 266 | 6.0 | 15.0 | 0.00 | 0.00 | 0.00 | 70 | 1013.1 |
| 20260901211028 | 88 | 192 | 4.0 | 13.0 | 0.00 | 0.00 | 0.00 | 70 | 1013.0 |
| 20260901210027 | 88 | 245 | 5.0 | 13.0 | 0.00 | 0.00 | 0.00 | 69 | 1013.0 |
| 20260901202752 | 88 | 254 | 6.0 | 12.0 | 0.00 | 0.00 | 0.00 | 71 | 1013.1 |
| 20260901200709 | 87 | 263 | 5.0 | 10.0 | 0.00 | 0.00 | 0.00 | 73 | 1013.1 |
| 20260901194604 | 88 | 284 | 6.0 | 13.0 | 0.00 | 0.00 | 0.00 | 70 | 1013.2 |
| 20260901193602 | 87 | 265 | 6.0 | 13.0 | 0.00 | 0.00 | 0.00 | 71 | 1013.2 |
| 20260901192614 | 88 | 233 | 6.0 | 10.0 | 0.00 | 0.00 | 0.00 | 71 | 1013.0 |
| 20260901191539 | 89 | 318 | 4.0 | 10.0 | 0.00 | 0.00 | 0.00 | 71 | 1013.0 |
| 20260901190528 | 88 | 252 | 4.0 | 9.0 | 0.00 | 0.00 | 0.00 | 69 | 1013.0 |
| 20260901185535 | 88 | 249 | 4.0 | 9.0 | 0.00 | 0.00 | 0.00 | 71 | 1012.8 |
| 20260901183357 | 87 | 248 | 4.0 | 10.0 | 0.00 | 0.00 | 0.00 | 69 | 1012.9 |
| 20260901182332 | 88 | 257 | 3.0 | 8.0 | 0.00 | 0.00 | 0.00 | 70 | 1013.0 |
| 20260901181342 | 88 | 323 | 4.0 | 10.0 | 0.00 | 0.00 | 0.00 | 71 | 1013.0 |
| 20260901180308 | 87 | 242 | 5.0 | 10.0 | 0.00 | 0.00 | 0.00 | 73 | 1013.1 |
| 20260901175305 | 87 | 261 | 4.0 | 9.0 | 0.00 | 0.00 | 0.00 | 72 | 1013.3 |
| 20260901174244 | 86 | 228 | 4.0 | 7.0 | 0.00 | 0.00 | 0.00 | 73 | 1013.3 |
| 20260901173233 | 87 | 236 | 5.0 | 9.0 | 0.00 | 0.00 | 0.00 | 74 | 1013.4 |
| 20260901172222 | 86 | 264 | 4.0 | 11.0 | 0.00 | 0.00 | 0.00 | 75 | 1013.4 |
| 20260901171233 | 88 | 203 | 5.0 | 11.0 | 0.00 | 0.00 | 0.00 | 71 | 1013.5 |
| 20260901170207 | 88 | 293 | 4.0 | 8.0 | 0.00 | 0.00 | 0.00 | 71 | 1013.5 |
| 20260901165154 | 88 | 263 | 4.0 | 7.0 | 0.00 | 0.00 | 0.00 | 73 | 1013.7 |
| 20260901164202 | 87 | 250 | 4.0 | 8.0 | 0.00 | 0.00 | 0.00 | 70 | 1013.7 |
| 20260901163151 | 89 | 257 | 4.0 | 9.0 | 0.00 | 0.00 | 0.00 | 70 | 1013.8 |
| 20260901162157 | 88 | 270 | 4.0 | 9.0 | 0.00 | 0.00 | 0.00 | 73 | 1014.0 |
| 20260901161124 | 87 | 288 | 4.0 | 10.0 | 0.00 | 0.00 | 0.00 | 71 | 1014.0 |
| 20260901154817 | 86 | 258 | 4.0 | 8.0 | 0.00 | 0.00 | 0.00 | 72 | 1013.9 |
| 20260901153800 | 86 | 322 | 4.0 | 8.0 | 0.00 | 0.00 | 0.00 | 73 | 1013.8 |
| 20260901152814 | 85 | 287 | 4.0 | 8.0 | 0.00 | 0.00 | 0.00 | 74 | 1013.8 |
| 20260901151125 | 84 | 288 | 4.0 | 7.0 | 0.00 | 0.00 | 0.00 | 76 | 1013.9 |
| 20260901150125 | 83 | 286 | 3.0 | 7.0 | 0.00 | 0.00 | 0.00 | 75 | 1014.1 |
| 20260901145115 | 82 | 264 | 4.0 | 7.0 | 0.00 | 0.00 | 0.00 | 79 | 1014.2 |
| 20260901144059 | 82 | 265 | 2.0 | 7.0 | 0.00 | 0.00 | 0.00 | 76 | 1014.2 |
| 20260901143053 | 82 | 263 | 3.0 | 7.0 | 0.00 | 0.00 | 0.00 | 78 | 1014.0 |
| 20260901142106 | 81 | 263 | 3.0 | 8.0 | 0.00 | 0.00 | 0.00 | 80 | 1014.1 |
| 20260901141057 | 82 | 276 | 5.0 | 9.0 | 0.00 | 0.00 | 0.00 | 78 | 1013.9 |
| 20260901140029 | 82 | 300 | 4.0 | 9.0 | 0.00 | 0.00 | 0.00 | 77 | 1013.7 |
| 20260901135033 | 83 | 266 | 3.0 | 7.0 | 0.00 | 0.00 | 0.00 | 78 | 1013.6 |
| 20260901134058 | 82 | 265 | 3.0 | 7.0 | 0.00 | 0.00 | 0.00 | 79 | 1013.5 |
| 20260901133112 | 81 | 290 | 3.0 | 7.0 | 0.00 | 0.00 | 0.00 | 78 | 1013.4 |
| 20260901132103 | 81 | 260 | 3.0 | 7.0 | 0.00 | 0.00 | 0.00 | 79 | 1013.5 |
| 20260901131037 | 80 | 300 | 3.0 | 6.0 | 0.00 | 0.00 | 0.00 | 80 | 1013.6 |
| 20260901130037 | 80 | 252 | 3.0 | 6.0 | 0.00 | 0.00 | 0.00 | 81 | 1013.9 |
| 20260901125029 | 80 | 284 | 3.0 | 6.0 | 0.00 | 0.00 | 0.00 | 80 | 1013.9 |
| 20260901124015 | 80 | 307 | 2.0 | 6.0 | 0.00 | 0.00 | 0.00 | 81 | 1014.0 |
| 20260901123031 | 80 | 267 | 2.0 | 4.0 | 0.00 | 0.00 | 0.00 | 81 | 1013.9 |
| 20260901122045 | 80 | 261 | 2.0 | 4.0 | 0.00 | 0.00 | 0.00 | 80 | 1013.9 |
| 20260901121011 | 79 | 263 | 1.0 | 4.0 | 0.00 | 0.00 | 0.00 | 82 | 1013.8 |
| 20260901115946 | 78 | 265 | 1.0 | 4.0 | 0.00 | 0.00 | 0.00 | 83 | 1013.8 |
| 20260901115010 | 77 | 250 | 1.0 | 4.0 | 0.00 | 0.00 | 0.00 | 83 | 1013.8 |
| 20260901112913 | 77 | 243 | 1.0 | 4.0 | 0.00 | 0.00 | 0.00 | 84 | 1013.6 |
| 20260901111921 | 77 | 249 | 0.0 | 3.0 | 0.00 | 0.00 | 0.00 | 85 | 1013.7 |
| 20260901110929 | 76 | 253 | 0.0 | 2.0 | 0.00 | 0.00 | 0.00 | 85 | 1013.7 |
| 20260901104806 | 76 | 216 | 0.0 | 3.0 | 0.00 | 0.00 | 0.00 | 85 | 1013.6 |
| 20260901102551 | 77 | 284 | 1.0 | 5.0 | 0.00 | 0.00 | 0.00 | 85 | 1013.3 |
| 20260901101605 | 76 | 210 | 1.0 | 5.0 | 0.00 | 0.00 | 0.00 | 85 | 1013.2 |
| 20260901095405 | 76 | 256 | 1.0 | 5.0 | 0.00 | 0.00 | 0.00 | 86 | 1013.2 |
| 20260901094354 | 76 | 269 | 1.0 | 5.0 | 0.00 | 0.00 | 0.00 | 86 | 1013.1 |
| 20260901093409 | 76 | 149 | 1.0 | 4.0 | 0.00 | 0.00 | 0.00 | 86 | 1013.1 |
| 20260901090034 | 76 | 242 | 1.0 | 5.0 | 0.00 | 0.00 | 0.00 | 85 | 1013.1 |
| 20260901085002 | 76 | 230 | 1.0 | 5.0 | 0.00 | 0.00 | 0.00 | 85 | 1013.1 |
| 20260901082827 | 76 | 268 | 2.0 | 6.0 | 0.00 | 0.00 | 0.00 | 85 | 1013.1 |
| 20260901080655 | 76 | 259 | 2.0 | 6.0 | 0.00 | 0.00 | 0.00 | 84 | 1013.1 |
| 20260901075658 | 76 | 263 | 2.0 | 6.0 | 0.00 | 0.00 | 0.00 | 83 | 1013.2 |
| 20260901074649 | 76 | 117 | 2.0 | 8.0 | 0.00 | 0.00 | 0.00 | 83 | 1013.2 |
| 20260901073631 | 77 | 255 | 2.0 | 8.0 | 0.00 | 0.00 | 0.00 | 83 | 1013.2 |
| 20260901072615 | 77 | 259 | 2.0 | 7.0 | 0.00 | 0.00 | 0.00 | 83 | 1013.3 |
| 20260901070456 | 76 | 226 | 2.0 | 7.0 | 0.00 | 0.00 | 0.00 | 83 | 1013.2 |
| 20260901065500 | 77 | 228 | 1.0 | 6.0 | 0.00 | 0.00 | 0.00 | 82 | 1013.3 |
| 20260901064453 | 76 | 220 | 2.0 | 6.0 | 0.00 | 0.00 | 0.00 | 83 | 1013.4 |
| 20260901063502 | 76 | 225 | 2.0 | 6.0 | 0.00 | 0.00 | 0.00 | 83 | 1013.4 |
| 20260901062432 | 77 | 281 | 2.0 | 6.0 | 0.00 | 0.00 | 0.00 | 82 | 1013.4 |
| 20260901060247 | 77 | 266 | 2.0 | 5.0 | 0.00 | 0.00 | 0.00 | 82 | 1013.6 |
| 20260901055255 | 77 | 241 | 2.0 | 9.0 | 0.00 | 0.00 | 0.00 | 82 | 1013.5 |
| 20260901054231 | 77 | 227 | 2.0 | 9.0 | 0.00 | 0.00 | 0.00 | 82 | 1013.6 |
| 20260901053239 | 77 | 208 | 2.0 | 7.0 | 0.00 | 0.00 | 0.00 | 82 | 1013.8 |
| 20260901045905 | 76 | 221 | 2.0 | 6.0 | 0.00 | 0.00 | 0.00 | 83 | 1013.8 |
| 20260901044850 | 76 | 172 | 2.0 | 6.0 | 0.00 | 0.00 | 0.00 | 83 | 1013.7 |
| 20260901042702 | 76 | 204 | 3.0 | 6.0 | 0.00 | 0.00 | 0.00 | 83 | 1013.8 |
| 20260901041648 | 76 | 230 | 2.0 | 6.0 | 0.00 | 0.00 | 0.00 | 83 | 1013.8 |
| 20260901040619 | 76 | 232 | 1.0 | 5.0 | 0.00 | 0.00 | 0.00 | 83 | 1013.9 |
| 20260901035547 | 76 | 210 | 1.0 | 5.0 | 0.00 | 0.00 | 0.00 | 84 | 1013.9 |
| 20260901034547 | 75 | 218 | 0.0 | 0.0 | 0.00 | 0.00 | 0.00 | 86 | 1013.7 |
| 20260901033518 | 75 | 218 | 0.0 | 0.0 | 0.00 | 0.00 | 0.00 | 86 | 1013.9 |
| 20260901032536 | 74 | 218 | 0.0 | 1.0 | 0.00 | 0.00 | 0.00 | 87 | 1013.9 |
| 20260901031530 | 75 | 218 | 0.0 | 2.0 | 0.00 | 0.00 | 0.00 | 87 | 1014.0 |
| 20260901030546 | 74 | 199 | 0.0 | 0.0 | 0.00 | 0.00 | 0.00 | 87 | 1013.9 |
| 20260901023325 | 74 | 126 | 0.0 | 0.0 | 0.00 | 0.00 | 0.00 | 87 | 1013.8 |
| 20260901022345 | 74 | 130 | 0.0 | 1.0 | 0.00 | 0.00 | 0.00 | 87 | 1013.6 |
| 20260901021328 | 73 | 227 | 0.0 | 0.0 | 0.00 | 0.00 | 0.00 | 89 | 1013.8 |
| 20260901020340 | 73 | 227 | 0.0 | 0.0 | 0.00 | 0.00 | 0.00 | 90 | 1014.0 |
| 20260901014221 | 72 | 227 | 0.0 | 0.0 | 0.00 | 0.00 | 0.00 | 89 | 1014.3 |